Time,TemperatureF,DewpointF,PressureIn,WindDirection,WindDirectionDegrees,WindSpeedMPH,WindSpeedGustMPH,Humidity,HourlyPrecipIn,Conditions,Clouds,dailyrainin,SoftwareType,DateUTC
2013-07-22 00:00:00,80.0,76.0,30.15,ENE,67,7.0,7.0,87,0.00,,,0.00,Rainwise IP-100,2013-07-22 04:00:00,
2013-07-22 00:01:00,80.0,76.0,30.15,NE,45,9.0,9.0,87,0.00,,,0.00,Rainwise IP-100,2013-07-22 04:01:00,
2013-07-22 00:06:00,80.0,76.0,30.15,East,90,6.0,6.0,87,0.00,,,0.00,Rainwise IP-100,2013-07-22 04:06:00,
2013-07-22 00:11:00,80.0,76.0,30.14,NE,45,7.0,9.0,88,0.00,,,0.00,Rainwise IP-100,2013-07-22 04:11:00,
2013-07-22 00:16:00,80.0,76.0,30.14,NE,45,9.0,0.0,88,0.00,,,0.00,Rainwise IP-100,2013-07-22 04:16:00,
2013-07-22 00:21:00,80.0,76.0,30.14,East,90,7.0,0.0,88,0.00,,,0.00,Rainwise IP-100,2013-07-22 04:21:00,
2013-07-22 00:26:00,80.0,76.0,30.14,East,90,7.0,7.0,88,0.00,,,0.00,Rainwise IP-100,2013-07-22 04:26:00,
2013-07-22 00:31:00,80.0,76.0,30.14,ENE,67,9.0,9.0,87,0.00,,,0.00,Rainwise IP-100,2013-07-22 04:31:00,
2013-07-22 00:36:00,80.0,75.0,30.14,ENE,67,6.0,6.0,86,0.00,,,0.00,Rainwise IP-100,2013-07-22 04:36:00,
2013-07-22 00:42:00,80.0,75.0,30.14,NE,45,6.0,9.0,85,0.00,,,0.00,Rainwise IP-100,2013-07-22 04:42:00,
2013-07-22 00:47:00,80.0,74.0,30.14,East,90,6.0,8.0,83,0.00,,,0.00,Rainwise IP-100,2013-07-22 04:47:00,
2013-07-22 00:52:00,81.0,74.0,30.14,ESE,112,4.0,0.0,81,0.00,,,0.00,Rainwise IP-100,2013-07-22 04:52:00,
2013-07-22 00:57:00,81.0,74.0,30.14,East,90,2.0,8.0,81,0.00,,,0.00,Rainwise IP-100,2013-07-22 04:57:00,
2013-07-22 01:02:00,81.0,74.0,30.14,East,90,6.0,0.0,81,0.00,,,0.00,Rainwise IP-100,2013-07-22 05:02:00,
2013-07-22 03:56:00,80.0,74.0,30.08,SSE,157,6.0,6.0,83,0.00,,,0.00,Rainwise IP-100,2013-07-22 07:56:00,
2013-07-22 04:01:00,80.0,73.0,30.08,East,90,6.0,0.0,82,0.00,,,0.00,Rainwise IP-100,2013-07-22 08:01:00,
2013-07-22 04:06:00,80.0,73.0,30.08,SE,135,6.0,6.0,81,0.00,,,0.00,Rainwise IP-100,2013-07-22 08:06:00,
2013-07-22 04:11:00,80.0,73.0,30.08,SE,135,6.0,9.0,82,0.00,,,0.00,Rainwise IP-100,2013-07-22 08:11:00,
2013-07-22 04:17:00,80.0,73.0,30.08,ESE,112,3.0,0.0,82,0.00,,,0.00,Rainwise IP-100,2013-07-22 08:17:00,
2013-07-22 04:22:00,80.0,73.0,30.08,SE,135,6.0,9.0,81,0.00,,,0.00,Rainwise IP-100,2013-07-22 08:22:00,
2013-07-22 04:27:00,80.0,73.0,30.08,SE,135,7.0,7.0,82,0.00,,,0.00,Rainwise IP-100,2013-07-22 08:27:00,
2013-07-22 04:32:00,80.0,73.0,30.08,SE,135,5.0,5.0,81,0.00,,,0.00,Rainwise IP-100,2013-07-22 08:32:00,
2013-07-22 04:37:00,80.0,73.0,30.08,SE,135,6.0,6.0,81,0.00,,,0.00,Rainwise IP-100,2013-07-22 08:37:00,
2013-07-22 04:42:00,80.0,73.0,30.08,East,90,9.0,9.0,82,0.00,,,0.00,Rainwise IP-100,2013-07-22 08:42:00,
2013-07-22 04:47:00,80.0,73.0,30.08,SE,135,5.0,9.0,82,0.00,,,0.00,Rainwise IP-100,2013-07-22 08:47:00,
2013-07-22 04:53:00,80.0,73.0,30.08,SE,135,6.0,0.0,81,0.00,,,0.00,Rainwise IP-100,2013-07-22 08:53:00,
2013-07-22 04:58:00,80.0,73.0,30.08,SE,135,9.0,0.0,81,0.00,,,0.00,Rainwise IP-100,2013-07-22 08:58:00,
2013-07-22 05:03:00,80.0,73.0,30.08,SE,135,5.0,0.0,82,0.00,,,0.00,Rainwise IP-100,2013-07-22 09:03:00,
2013-07-22 05:08:00,80.0,73.0,30.08,ESE,112,3.0,0.0,82,0.00,,,0.00,Rainwise IP-100,2013-07-22 09:08:00,
2013-07-22 05:13:00,80.0,74.0,30.09,SE,135,2.0,8.0,83,0.00,,,0.00,Rainwise IP-100,2013-07-22 09:13:00,
2013-07-22 05:18:00,80.0,74.0,30.09,ESE,112,6.0,9.0,83,0.00,,,0.00,Rainwise IP-100,2013-07-22 09:18:00,
2013-07-22 05:23:00,80.0,74.0,30.09,East,90,7.0,8.0,83,0.00,,,0.00,Rainwise IP-100,2013-07-22 09:23:00,
2013-07-22 05:28:00,80.0,74.0,30.09,ESE,112,1.0,7.0,83,0.00,,,0.00,Rainwise IP-100,2013-07-22 09:28:00,
2013-07-22 05:34:00,80.0,73.0,30.09,East,90,6.0,6.0,82,0.00,,,0.00,Rainwise IP-100,2013-07-22 09:34:00,
2013-07-22 05:39:00,80.0,74.0,30.09,ESE,112,7.0,0.0,83,0.00,,,0.00,Rainwise IP-100,2013-07-22 09:39:00,
2013-07-22 05:44:00,80.0,74.0,30.09,SE,135,3.0,0.0,83,0.00,,,0.00,Rainwise IP-100,2013-07-22 09:44:00,
2013-07-22 05:49:00,80.0,73.0,30.09,SSE,157,0.0,3.0,81,0.00,,,0.00,Rainwise IP-100,2013-07-22 09:49:00,
2013-07-22 05:54:00,80.0,73.0,30.09,SE,135,3.0,3.0,81,0.00,,,0.00,Rainwise IP-100,2013-07-22 09:54:00,
2013-07-22 05:59:00,80.0,74.0,30.09,East,90,7.0,9.0,83,0.00,,,0.00,Rainwise IP-100,2013-07-22 09:59:00,
2013-07-22 06:04:00,80.0,73.0,30.10,East,90,7.0,7.0,81,0.00,,,0.00,Rainwise IP-100,2013-07-22 10:04:00,
2013-07-22 06:10:00,80.0,74.0,30.10,SSE,157,9.0,9.0,83,0.00,,,0.00,Rainwise IP-100,2013-07-22 10:10:00,
2013-07-22 06:15:00,80.0,74.0,30.10,SE,135,7.0,7.0,83,0.00,,,0.00,Rainwise IP-100,2013-07-22 10:15:00,
2013-07-22 06:20:00,80.0,74.0,30.10,SE,135,6.0,0.0,83,0.00,,,0.00,Rainwise IP-100,2013-07-22 10:20:00,
2013-07-22 06:25:00,80.0,74.0,30.09,ESE,112,6.0,6.0,83,0.00,,,0.00,Rainwise IP-100,2013-07-22 10:25:00,
2013-07-22 06:30:00,80.0,74.0,30.09,SE,135,0.0,3.0,83,0.00,,,0.00,Rainwise IP-100,2013-07-22 10:30:00,
2013-07-22 06:35:00,80.0,73.0,30.09,SE,135,7.0,7.0,82,0.00,,,0.00,Rainwise IP-100,2013-07-22 10:35:00,
2013-07-22 06:40:00,80.0,74.0,30.09,ESE,112,7.0,7.0,83,0.00,,,0.00,Rainwise IP-100,2013-07-22 10:40:00,
2013-07-22 06:45:00,80.0,74.0,30.09,SE,135,9.0,9.0,83,0.00,,,0.00,Rainwise IP-100,2013-07-22 10:45:00,
2013-07-22 06:50:00,80.0,75.0,30.09,East,90,6.0,6.0,85,0.00,,,0.00,Rainwise IP-100,2013-07-22 10:50:00,
2013-07-22 06:56:00,80.0,75.0,30.10,SE,135,6.0,8.0,85,0.00,,,0.00,Rainwise IP-100,2013-07-22 10:56:00,
2013-07-22 07:01:00,80.0,75.0,30.10,SE,135,6.0,6.0,85,0.00,,,0.00,Rainwise IP-100,2013-07-22 11:01:00,
2013-07-22 07:06:00,80.0,74.0,30.10,SSE,157,7.0,0.0,84,0.00,,,0.00,Rainwise IP-100,2013-07-22 11:06:00,
2013-07-22 07:11:00,80.0,75.0,30.10,South,180,6.0,6.0,85,0.00,,,0.00,Rainwise IP-100,2013-07-22 11:11:00,
2013-07-22 07:16:00,80.0,75.0,30.10,SE,135,5.0,9.0,85,0.00,,,0.00,Rainwise IP-100,2013-07-22 11:16:00,
2013-07-22 07:21:00,80.0,74.0,30.10,South,180,4.0,0.0,83,0.00,,,0.00,Rainwise IP-100,2013-07-22 11:21:00,
2013-07-22 07:26:00,80.0,74.0,30.10,SE,135,5.0,5.0,83,0.00,,,0.00,Rainwise IP-100,2013-07-22 11:26:00,
2013-07-22 07:32:00,80.0,74.0,30.10,SE,135,5.0,0.0,83,0.00,,,0.00,Rainwise IP-100,2013-07-22 11:32:00,
2013-07-22 07:37:00,80.0,74.0,30.11,SE,135,5.0,5.0,83,0.00,,,0.00,Rainwise IP-100,2013-07-22 11:37:00,
2013-07-22 07:42:00,80.0,73.0,30.11,SSE,157,0.0,0.0,82,0.00,,,0.00,Rainwise IP-100,2013-07-22 11:42:00,
2013-07-22 07:47:00,80.0,73.0,30.11,SE,135,7.0,0.0,81,0.00,,,0.00,Rainwise IP-100,2013-07-22 11:47:00,
2013-07-22 07:52:00,80.0,73.0,30.12,ESE,112,6.0,6.0,81,0.00,,,0.00,Rainwise IP-100,2013-07-22 11:52:00,
2013-07-22 07:57:00,81.0,74.0,30.12,SE,135,7.0,7.0,81,0.00,,,0.00,Rainwise IP-100,2013-07-22 11:57:00,
2013-07-22 08:02:00,80.0,73.0,30.12,SE,135,6.0,6.0,81,0.00,,,0.00,Rainwise IP-100,2013-07-22 12:02:00,
2013-07-22 08:07:00,80.0,73.0,30.12,SSE,157,7.0,7.0,81,0.00,,,0.00,Rainwise IP-100,2013-07-22 12:07:00,
2013-07-22 08:13:00,81.0,74.0,30.12,SE,135,6.0,0.0,81,0.00,,,0.00,Rainwise IP-100,2013-07-22 12:13:00,
2013-07-22 08:18:00,81.0,74.0,30.12,SE,135,5.0,7.0,81,0.00,,,0.00,Rainwise IP-100,2013-07-22 12:18:00,
2013-07-22 08:23:00,81.0,74.0,30.13,ESE,112,9.0,9.0,79,0.00,,,0.00,Rainwise IP-100,2013-07-22 12:23:00,
2013-07-22 08:28:00,81.0,74.0,30.13,ESE,112,9.0,9.0,79,0.00,,,0.00,Rainwise IP-100,2013-07-22 12:28:00,
2013-07-22 08:33:00,81.0,74.0,30.13,SE,135,5.0,5.0,79,0.00,,,0.00,Rainwise IP-100,2013-07-22 12:33:00,
2013-07-22 08:38:00,81.0,74.0,30.13,ESE,112,5.0,5.0,79,0.00,,,0.00,Rainwise IP-100,2013-07-22 12:38:00,
2013-07-22 08:43:00,81.0,74.0,30.14,SSE,157,7.0,0.0,79,0.00,,,0.00,Rainwise IP-100,2013-07-22 12:43:00,
2013-07-22 08:49:00,81.0,74.0,30.14,SE,135,2.0,0.0,79,0.00,,,0.00,Rainwise IP-100,2013-07-22 12:49:00,
2013-07-22 08:54:00,82.0,73.0,30.14,SE,135,8.0,8.0,75,0.00,,,0.00,Rainwise IP-100,2013-07-22 12:54:00,
2013-07-22 08:59:00,82.0,73.0,30.15,ESE,112,9.0,0.0,76,0.00,,,0.00,Rainwise IP-100,2013-07-22 12:59:00,
2013-07-22 09:04:00,82.0,73.0,30.15,South,180,6.0,6.0,76,0.00,,,0.00,Rainwise IP-100,2013-07-22 13:04:00,
2013-07-22 09:09:00,82.0,73.0,30.15,South,180,6.0,0.0,75,0.00,,,0.00,Rainwise IP-100,2013-07-22 13:09:00,
2013-07-22 09:14:00,82.0,73.0,30.15,SE,135,7.0,0.0,75,0.00,,,0.00,Rainwise IP-100,2013-07-22 13:14:00,
2013-07-22 09:19:00,83.0,73.0,30.15,South,180,7.0,0.0,72,0.00,,,0.00,Rainwise IP-100,2013-07-22 13:19:00,
2013-07-22 09:24:00,84.0,74.0,30.15,SSE,157,8.0,8.0,72,0.00,,,0.00,Rainwise IP-100,2013-07-22 13:24:00,
2013-07-22 09:30:00,84.0,73.0,30.15,SSE,157,6.0,6.0,71,0.00,,,0.00,Rainwise IP-100,2013-07-22 13:30:00,
2013-07-22 09:35:00,85.0,74.0,30.16,ESE,112,7.0,0.0,70,0.00,,,0.00,Rainwise IP-100,2013-07-22 13:35:00,
2013-07-22 09:40:00,85.0,73.0,30.16,SE,135,7.0,0.0,69,0.00,,,0.00,Rainwise IP-100,2013-07-22 13:40:00,
2013-07-22 09:45:00,85.0,74.0,30.16,SSE,157,7.0,7.0,70,0.00,,,0.00,Rainwise IP-100,2013-07-22 13:45:00,
2013-07-22 09:50:00,85.0,74.0,30.16,SE,135,6.0,0.0,70,0.00,,,0.00,Rainwise IP-100,2013-07-22 13:50:00,
2013-07-22 09:54:00,84.0,72.0,30.17,SSE,157,9.0,9.0,69,0.00,,,0.00,Rainwise IP-100,2013-07-22 13:54:00,
2013-07-22 09:59:00,84.0,73.0,30.16,SE,135,4.0,4.0,70,0.00,,,0.00,Rainwise IP-100,2013-07-22 13:59:00,
2013-07-22 10:05:00,84.0,74.0,30.17,South,180,3.0,3.0,72,0.00,,,0.00,Rainwise IP-100,2013-07-22 14:05:00,
2013-07-22 10:10:00,83.0,73.0,30.17,SE,135,6.0,6.0,72,0.00,,,0.00,Rainwise IP-100,2013-07-22 14:10:00,
2013-07-22 10:15:00,83.0,73.0,30.17,South,180,3.0,9.0,72,0.00,,,0.00,Rainwise IP-100,2013-07-22 14:15:00,
2013-07-22 10:20:00,84.0,73.0,30.17,SE,135,6.0,0.0,70,0.00,,,0.00,Rainwise IP-100,2013-07-22 14:20:00,
2013-07-22 10:25:00,84.0,73.0,30.17,East,90,6.0,6.0,70,0.00,,,0.00,Rainwise IP-100,2013-07-22 14:25:00,
2013-07-22 10:30:00,84.0,73.0,30.17,SE,135,7.0,7.0,70,0.00,,,0.00,Rainwise IP-100,2013-07-22 14:30:00,
2013-07-22 10:35:00,84.0,73.0,30.17,ESE,112,9.0,9.0,70,0.00,,,0.00,Rainwise IP-100,2013-07-22 14:35:00,
2013-07-22 10:41:00,84.0,73.0,30.17,SE,135,3.0,3.0,71,0.00,,,0.00,Rainwise IP-100,2013-07-22 14:41:00,
2013-07-22 10:46:00,84.0,72.0,30.17,ESE,112,0.0,2.0,69,0.00,,,0.00,Rainwise IP-100,2013-07-22 14:46:00,
2013-07-22 10:51:00,84.0,74.0,30.18,SE,135,8.0,8.0,73,0.00,,,0.00,Rainwise IP-100,2013-07-22 14:51:00,
2013-07-22 10:56:00,83.0,73.0,30.18,SE,135,4.0,4.0,72,0.00,,,0.00,Rainwise IP-100,2013-07-22 14:56:00,
2013-07-22 11:01:00,84.0,74.0,30.17,ESE,112,0.0,8.0,72,0.00,,,0.00,Rainwise IP-100,2013-07-22 15:01:00,
2013-07-22 11:06:00,84.0,74.0,30.17,South,180,6.0,6.0,72,0.00,,,0.00,Rainwise IP-100,2013-07-22 15:06:00,
2013-07-22 11:11:00,85.0,72.0,30.18,SE,135,5.0,5.0,67,0.00,,,0.00,Rainwise IP-100,2013-07-22 15:11:00,
2013-07-22 11:16:00,85.0,72.0,30.18,SE,135,0.0,0.0,67,0.00,,,0.00,Rainwise IP-100,2013-07-22 15:16:00,
2013-07-22 11:22:00,86.0,72.0,30.18,South,180,4.0,4.0,65,0.00,,,0.00,Rainwise IP-100,2013-07-22 15:22:00,
2013-07-22 11:27:00,86.0,73.0,30.18,SE,135,7.0,7.0,67,0.00,,,0.00,Rainwise IP-100,2013-07-22 15:27:00,
2013-07-22 11:32:00,86.0,72.0,30.18,SE,135,7.0,7.0,65,0.00,,,0.00,Rainwise IP-100,2013-07-22 15:32:00,
2013-07-22 11:37:00,84.0,72.0,30.18,SSE,157,5.0,5.0,69,0.00,,,0.00,Rainwise IP-100,2013-07-22 15:37:00,
2013-07-22 11:38:00,84.0,73.0,30.18,South,180,9.0,9.0,70,0.00,,,0.00,Rainwise IP-100,2013-07-22 15:38:00,
2013-07-22 11:43:00,85.0,73.0,30.18,SE,135,6.0,6.0,69,0.00,,,0.00,Rainwise IP-100,2013-07-22 15:43:00,
2013-07-22 11:48:00,85.0,73.0,30.18,SE,135,6.0,6.0,69,0.00,,,0.00,Rainwise IP-100,2013-07-22 15:48:00,
2013-07-22 11:53:00,85.0,74.0,30.17,South,180,7.0,7.0,71,0.00,,,0.00,Rainwise IP-100,2013-07-22 15:53:00,
2013-07-22 11:58:00,85.0,73.0,30.18,South,180,6.0,6.0,69,0.00,,,0.00,Rainwise IP-100,2013-07-22 15:58:00,
2013-07-22 12:03:00,85.0,74.0,30.18,South,180,0.0,5.0,70,0.00,,,0.00,Rainwise IP-100,2013-07-22 16:03:00,
2013-07-22 12:08:00,84.0,72.0,30.18,SE,135,6.0,6.0,69,0.00,,,0.00,Rainwise IP-100,2013-07-22 16:08:00,
2013-07-22 12:13:00,84.0,74.0,30.18,SE,135,6.0,6.0,72,0.00,,,0.00,Rainwise IP-100,2013-07-22 16:13:00,
2013-07-22 12:19:00,84.0,74.0,30.18,South,180,7.0,7.0,72,0.00,,,0.00,Rainwise IP-100,2013-07-22 16:19:00,
2013-07-22 12:24:00,85.0,73.0,30.18,South,180,7.0,7.0,69,0.00,,,0.00,Rainwise IP-100,2013-07-22 16:24:00,
2013-07-22 12:29:00,85.0,74.0,30.18,SE,135,9.0,9.0,70,0.00,,,0.00,Rainwise IP-100,2013-07-22 16:29:00,
2013-07-22 12:34:00,84.0,73.0,30.18,South,180,8.0,8.0,70,0.00,,,0.00,Rainwise IP-100,2013-07-22 16:34:00,
2013-07-22 12:39:00,85.0,74.0,30.18,SE,135,0.0,2.0,70,0.00,,,0.00,Rainwise IP-100,2013-07-22 16:39:00,
2013-07-22 12:44:00,85.0,74.0,30.18,South,180,5.0,5.0,70,0.00,,,0.00,Rainwise IP-100,2013-07-22 16:44:00,
2013-07-22 12:49:00,85.0,74.0,30.18,South,180,8.0,8.0,70,0.00,,,0.00,Rainwise IP-100,2013-07-22 16:49:00,
2013-07-22 12:55:00,85.0,74.0,30.18,SE,135,6.0,6.0,70,0.00,,,0.00,Rainwise IP-100,2013-07-22 16:55:00,
2013-07-22 13:00:00,85.0,74.0,30.17,SSE,157,7.0,7.0,71,0.00,,,0.00,Rainwise IP-100,2013-07-22 17:00:00,
2013-07-22 13:05:00,84.0,73.0,30.17,SSE,157,6.0,6.0,71,0.00,,,0.00,Rainwise IP-100,2013-07-22 17:05:00,
2013-07-22 13:10:00,84.0,73.0,30.17,SE,135,0.0,3.0,70,0.00,,,0.00,Rainwise IP-100,2013-07-22 17:10:00,
2013-07-22 13:15:00,84.0,74.0,30.17,SE,135,9.0,9.0,72,0.00,,,0.00,Rainwise IP-100,2013-07-22 17:15:00,
2013-07-22 13:20:00,85.0,74.0,30.17,SE,135,6.0,6.0,70,0.00,,,0.00,Rainwise IP-100,2013-07-22 17:20:00,
2013-07-22 13:25:00,84.0,73.0,30.17,South,180,8.0,8.0,71,0.00,,,0.00,Rainwise IP-100,2013-07-22 17:25:00,
2013-07-22 13:30:00,84.0,72.0,30.17,South,180,8.0,8.0,69,0.00,,,0.00,Rainwise IP-100,2013-07-22 17:30:00,
2013-07-22 13:36:00,84.0,73.0,30.16,South,180,6.0,6.0,70,0.00,,,0.00,Rainwise IP-100,2013-07-22 17:36:00,
2013-07-22 13:41:00,85.0,73.0,30.16,South,180,5.0,5.0,68,0.00,,,0.00,Rainwise IP-100,2013-07-22 17:41:00,
2013-07-22 13:46:00,85.0,73.0,30.16,South,180,6.0,6.0,68,0.00,,,0.00,Rainwise IP-100,2013-07-22 17:46:00,
2013-07-22 13:51:00,85.0,74.0,30.16,SE,135,0.0,3.0,70,0.00,,,0.00,Rainwise IP-100,2013-07-22 17:51:00,
2013-07-22 13:56:00,85.0,74.0,30.16,South,180,6.0,6.0,70,0.00,,,0.00,Rainwise IP-100,2013-07-22 17:56:00,
2013-07-22 14:01:00,85.0,73.0,30.16,SSE,157,6.0,6.0,69,0.00,,,0.00,Rainwise IP-100,2013-07-22 18:01:00,
2013-07-22 14:06:00,85.0,74.0,30.15,South,180,7.0,7.0,70,0.00,,,0.00,Rainwise IP-100,2013-07-22 18:06:00,
2013-07-22 14:12:00,85.0,73.0,30.15,South,180,6.0,6.0,68,0.00,,,0.00,Rainwise IP-100,2013-07-22 18:12:00,
2013-07-22 14:17:00,86.0,74.0,30.15,SE,135,8.0,8.0,68,0.00,,,0.00,Rainwise IP-100,2013-07-22 18:17:00,
2013-07-22 14:22:00,85.0,73.0,30.15,SE,135,0.0,4.0,68,0.00,,,0.00,Rainwise IP-100,2013-07-22 18:22:00,
2013-07-22 14:27:00,85.0,73.0,30.15,SE,135,9.0,9.0,69,0.00,,,0.00,Rainwise IP-100,2013-07-22 18:27:00,
2013-07-22 14:32:00,85.0,73.0,30.15,South,180,9.0,9.0,69,0.00,,,0.00,Rainwise IP-100,2013-07-22 18:32:00,
2013-07-22 14:37:00,85.0,74.0,30.15,South,180,6.0,6.0,70,0.00,,,0.00,Rainwise IP-100,2013-07-22 18:37:00,
2013-07-22 14:42:00,85.0,74.0,30.14,SE,135,7.0,7.0,71,0.00,,,0.00,Rainwise IP-100,2013-07-22 18:42:00,
2013-07-22 14:47:00,85.0,74.0,30.14,SE,135,9.0,9.0,70,0.00,,,0.00,Rainwise IP-100,2013-07-22 18:47:00,
2013-07-22 14:53:00,85.0,74.0,30.14,South,180,6.0,6.0,71,0.00,,,0.00,Rainwise IP-100,2013-07-22 18:53:00,
2013-07-22 14:58:00,85.0,74.0,30.14,SE,135,5.0,5.0,70,0.00,,,0.00,Rainwise IP-100,2013-07-22 18:58:00,
2013-07-22 15:03:00,85.0,73.0,30.14,SE,135,7.0,7.0,69,0.00,,,0.00,Rainwise IP-100,2013-07-22 19:03:00,
2013-07-22 15:08:00,85.0,73.0,30.14,SE,135,4.0,6.0,69,0.00,,,0.00,Rainwise IP-100,2013-07-22 19:08:00,
2013-07-22 15:13:00,85.0,74.0,30.14,SSE,157,3.0,6.0,70,0.00,,,0.00,Rainwise IP-100,2013-07-22 19:13:00,
2013-07-22 15:18:00,85.0,74.0,30.13,ESE,112,5.0,5.0,70,0.00,,,0.00,Rainwise IP-100,2013-07-22 19:18:00,
2013-07-22 15:23:00,85.0,74.0,30.13,SE,135,9.0,9.0,70,0.00,,,0.00,Rainwise IP-100,2013-07-22 19:23:00,
2013-07-22 15:29:00,85.0,74.0,30.13,SSE,157,8.0,8.0,72,0.00,,,0.00,Rainwise IP-100,2013-07-22 19:29:00,
2013-07-22 15:34:00,85.0,74.0,30.13,SE,135,0.0,3.0,70,0.00,,,0.00,Rainwise IP-100,2013-07-22 19:34:00,
2013-07-22 15:39:00,85.0,74.0,30.13,SE,135,0.0,5.0,71,0.00,,,0.00,Rainwise IP-100,2013-07-22 19:39:00,
2013-07-22 15:44:00,85.0,74.0,30.13,SE,135,2.0,5.0,71,0.00,,,0.00,Rainwise IP-100,2013-07-22 19:44:00,
2013-07-22 15:49:00,85.0,74.0,30.13,SE,135,4.0,4.0,70,0.00,,,0.00,Rainwise IP-100,2013-07-22 19:49:00,
2013-07-22 15:54:00,85.0,74.0,30.12,SSE,157,3.0,3.0,70,0.00,,,0.00,Rainwise IP-100,2013-07-22 19:54:00,
2013-07-22 15:59:00,85.0,74.0,30.12,SSE,157,9.0,9.0,70,0.00,,,0.00,Rainwise IP-100,2013-07-22 19:59:00,
2013-07-22 16:04:00,85.0,74.0,30.12,South,180,7.0,7.0,71,0.00,,,0.00,Rainwise IP-100,2013-07-22 20:04:00,
2013-07-22 16:10:00,85.0,74.0,30.12,South,180,9.0,9.0,72,0.00,,,0.00,Rainwise IP-100,2013-07-22 20:10:00,
2013-07-22 16:15:00,85.0,74.0,30.12,SSE,157,6.0,6.0,71,0.00,,,0.00,Rainwise IP-100,2013-07-22 20:15:00,
2013-07-22 16:17:00,85.0,74.0,30.12,SE,135,0.0,5.0,70,0.00,,,0.00,Rainwise IP-100,2013-07-22 20:17:00,
2013-07-22 16:22:00,85.0,74.0,30.12,SE,135,7.0,7.0,70,0.00,,,0.00,Rainwise IP-100,2013-07-22 20:22:00,
2013-07-22 16:27:00,86.0,75.0,30.12,SE,135,8.0,8.0,70,0.00,,,0.00,Rainwise IP-100,2013-07-22 20:27:00,
2013-07-22 16:32:00,86.0,75.0,30.12,East,90,6.0,6.0,70,0.00,,,0.00,Rainwise IP-100,2013-07-22 20:32:00,
2013-07-22 16:37:00,86.0,75.0,30.12,SE,135,2.0,2.0,70,0.00,,,0.00,Rainwise IP-100,2013-07-22 20:37:00,
2013-07-22 16:42:00,85.0,74.0,30.12,SE,135,8.0,8.0,70,0.00,,,0.00,Rainwise IP-100,2013-07-22 20:42:00,
2013-07-22 16:47:00,85.0,74.0,30.12,South,180,6.0,6.0,71,0.00,,,0.00,Rainwise IP-100,2013-07-22 20:47:00,
2013-07-22 16:53:00,85.0,74.0,30.12,ESE,112,0.0,4.0,70,0.00,,,0.00,Rainwise IP-100,2013-07-22 20:53:00,
2013-07-22 16:58:00,85.0,74.0,30.12,ESE,112,0.0,3.0,71,0.00,,,0.00,Rainwise IP-100,2013-07-22 20:58:00,
2013-07-22 17:03:00,85.0,74.0,30.12,East,90,6.0,6.0,72,0.00,,,0.00,Rainwise IP-100,2013-07-22 21:03:00,
2013-07-22 17:08:00,85.0,74.0,30.12,ESE,112,9.0,9.0,71,0.00,,,0.00,Rainwise IP-100,2013-07-22 21:08:00,
2013-07-22 17:13:00,85.0,74.0,30.12,SSE,157,4.0,4.0,70,0.00,,,0.00,Rainwise IP-100,2013-07-22 21:13:00,
2013-07-22 17:18:00,85.0,74.0,30.11,SE,135,8.0,8.0,70,0.00,,,0.00,Rainwise IP-100,2013-07-22 21:18:00,
2013-07-22 17:23:00,85.0,74.0,30.11,SE,135,2.0,3.0,72,0.00,,,0.00,Rainwise IP-100,2013-07-22 21:23:00,
2013-07-22 17:28:00,85.0,74.0,30.11,South,180,5.0,5.0,71,0.00,,,0.00,Rainwise IP-100,2013-07-22 21:28:00,
2013-07-22 17:34:00,85.0,74.0,30.11,SSE,157,5.0,5.0,70,0.00,,,0.00,Rainwise IP-100,2013-07-22 21:34:00,
2013-07-22 17:39:00,85.0,74.0,30.11,SSE,157,8.0,8.0,71,0.00,,,0.00,Rainwise IP-100,2013-07-22 21:39:00,
2013-07-22 17:44:00,84.0,74.0,30.11,SE,135,6.0,6.0,72,0.00,,,0.00,Rainwise IP-100,2013-07-22 21:44:00,
2013-07-22 17:49:00,84.0,74.0,30.11,ESE,112,5.0,5.0,73,0.00,,,0.00,Rainwise IP-100,2013-07-22 21:49:00,
2013-07-22 17:54:00,84.0,74.0,30.10,SE,135,6.0,6.0,72,0.00,,,0.00,Rainwise IP-100,2013-07-22 21:54:00,
2013-07-22 17:59:00,84.0,74.0,30.10,SE,135,6.0,0.0,73,0.00,,,0.00,Rainwise IP-100,2013-07-22 21:59:00,
2013-07-22 18:04:00,84.0,74.0,30.10,SE,135,9.0,9.0,73,0.00,,,0.00,Rainwise IP-100,2013-07-22 22:04:00,
2013-07-22 18:10:00,85.0,74.0,30.10,SE,135,8.0,8.0,72,0.00,,,0.00,Rainwise IP-100,2013-07-22 22:10:00,
2013-07-22 18:15:00,85.0,74.0,30.11,SE,135,5.0,5.0,72,0.00,,,0.00,Rainwise IP-100,2013-07-22 22:15:00,
2013-07-22 18:20:00,84.0,74.0,30.11,SSW,202,5.0,0.0,72,0.00,,,0.00,Rainwise IP-100,2013-07-22 22:20:00,
2013-07-22 18:25:00,84.0,73.0,30.11,SE,135,7.0,7.0,71,0.00,,,0.00,Rainwise IP-100,2013-07-22 22:25:00,
2013-07-22 18:30:00,84.0,73.0,30.11,SE,135,6.0,6.0,71,0.00,,,0.00,Rainwise IP-100,2013-07-22 22:30:00,
2013-07-22 18:35:00,84.0,73.0,30.11,SE,135,9.0,9.0,71,0.00,,,0.00,Rainwise IP-100,2013-07-22 22:35:00,
2013-07-22 18:40:00,84.0,74.0,30.10,SE,135,9.0,9.0,72,0.00,,,0.00,Rainwise IP-100,2013-07-22 22:40:00,
2013-07-22 18:45:00,84.0,72.0,30.11,South,180,6.0,6.0,69,0.00,,,0.00,Rainwise IP-100,2013-07-22 22:45:00,
2013-07-22 18:51:00,84.0,74.0,30.10,SE,135,4.0,4.0,72,0.00,,,0.00,Rainwise IP-100,2013-07-22 22:51:00,
2013-07-22 18:56:00,83.0,73.0,30.10,East,90,6.0,6.0,72,0.00,,,0.00,Rainwise IP-100,2013-07-22 22:56:00,
2013-07-22 19:01:00,83.0,72.0,30.11,South,180,5.0,0.0,71,0.00,,,0.00,Rainwise IP-100,2013-07-22 23:01:00,
2013-07-22 19:06:00,83.0,72.0,30.11,ESE,112,7.0,7.0,71,0.00,,,0.00,Rainwise IP-100,2013-07-22 23:06:00,
2013-07-22 19:11:00,83.0,73.0,30.10,SSE,157,3.0,3.0,72,0.00,,,0.00,Rainwise IP-100,2013-07-22 23:11:00,
2013-07-22 19:16:00,83.0,73.0,30.10,SSE,157,4.0,4.0,72,0.00,,,0.00,Rainwise IP-100,2013-07-22 23:16:00,
2013-07-22 19:21:00,83.0,73.0,30.10,ESE,112,9.0,0.0,72,0.00,,,0.00,Rainwise IP-100,2013-07-22 23:21:00,
2013-07-22 19:27:00,83.0,73.0,30.10,East,90,9.0,9.0,73,0.00,,,0.00,Rainwise IP-100,2013-07-22 23:27:00,
2013-07-22 19:32:00,83.0,73.0,30.10,SE,135,5.0,5.0,72,0.00,,,0.00,Rainwise IP-100,2013-07-22 23:32:00,
2013-07-22 19:33:00,82.0,72.0,30.10,South,180,4.0,4.0,73,0.00,,,0.00,Rainwise IP-100,2013-07-22 23:33:00,
2013-07-22 19:34:00,82.0,72.0,30.10,SE,135,6.0,6.0,73,0.00,,,0.00,Rainwise IP-100,2013-07-22 23:34:00,
2013-07-22 19:35:00,82.0,72.0,30.10,SSE,157,4.0,0.0,73,0.00,,,0.00,Rainwise IP-100,2013-07-22 23:35:00,
2013-07-22 19:40:00,82.0,72.0,30.10,SE,135,5.0,9.0,74,0.00,,,0.00,Rainwise IP-100,2013-07-22 23:40:00,
2013-07-22 19:45:00,82.0,72.0,30.10,SSW,202,4.0,9.0,74,0.00,,,0.00,Rainwise IP-100,2013-07-22 23:45:00,
2013-07-22 19:50:00,82.0,72.0,30.10,ESE,112,6.0,0.0,74,0.00,,,0.00,Rainwise IP-100,2013-07-22 23:50:00,
2013-07-22 19:55:00,82.0,72.0,30.10,SSE,157,3.0,9.0,74,0.00,,,0.00,Rainwise IP-100,2013-07-22 23:55:00,
2013-07-22 20:00:00,82.0,73.0,30.10,SE,135,7.0,8.0,75,0.00,,,0.00,Rainwise IP-100,2013-07-23 00:00:00,
2013-07-22 20:06:00,81.0,72.0,30.10,SSE,157,4.0,9.0,76,0.00,,,0.00,Rainwise IP-100,2013-07-23 00:06:00,
2013-07-22 20:11:00,81.0,72.0,30.10,SSE,157,4.0,0.0,76,0.00,,,0.00,Rainwise IP-100,2013-07-23 00:11:00,
2013-07-22 20:16:00,81.0,73.0,30.10,SE,135,8.0,8.0,77,0.00,,,0.00,Rainwise IP-100,2013-07-23 00:16:00,
2013-07-22 20:21:00,81.0,73.0,30.10,SE,135,7.0,9.0,77,0.00,,,0.00,Rainwise IP-100,2013-07-23 00:21:00,
2013-07-22 20:26:00,81.0,72.0,30.10,ESE,112,6.0,0.0,76,0.00,,,0.00,Rainwise IP-100,2013-07-23 00:26:00,
2013-07-22 20:31:00,81.0,73.0,30.10,SSE,157,5.0,0.0,77,0.00,,,0.00,Rainwise IP-100,2013-07-23 00:31:00,
2013-07-22 20:36:00,81.0,73.0,30.10,South,180,0.0,8.0,77,0.00,,,0.00,Rainwise IP-100,2013-07-23 00:36:00,
2013-07-22 20:41:00,81.0,73.0,30.10,SE,135,4.0,9.0,77,0.00,,,0.00,Rainwise IP-100,2013-07-23 00:41:00,
2013-07-22 20:47:00,81.0,73.0,30.10,SE,135,7.0,0.0,78,0.00,,,0.00,Rainwise IP-100,2013-07-23 00:47:00,
2013-07-22 20:52:00,81.0,73.0,30.10,SE,135,5.0,8.0,78,0.00,,,0.00,Rainwise IP-100,2013-07-23 00:52:00,
2013-07-22 20:57:00,81.0,73.0,30.10,SSE,157,3.0,8.0,77,0.00,,,0.00,Rainwise IP-100,2013-07-23 00:57:00,
2013-07-22 21:02:00,81.0,73.0,30.10,SE,135,6.0,0.0,77,0.00,,,0.00,Rainwise IP-100,2013-07-23 01:02:00,
2013-07-22 21:07:00,81.0,73.0,30.10,East,90,4.0,9.0,78,0.00,,,0.00,Rainwise IP-100,2013-07-23 01:07:00,
2013-07-22 21:12:00,81.0,73.0,30.10,SSE,157,3.0,8.0,78,0.00,,,0.00,Rainwise IP-100,2013-07-23 01:12:00,
2013-07-22 21:17:00,81.0,74.0,30.11,SE,135,2.0,8.0,79,0.00,,,0.00,Rainwise IP-100,2013-07-23 01:17:00,
2013-07-22 21:23:00,81.0,74.0,30.11,SE,135,4.0,7.0,79,0.00,,,0.00,Rainwise IP-100,2013-07-23 01:23:00,
2013-07-22 21:28:00,81.0,74.0,30.11,SSE,157,4.0,7.0,80,0.00,,,0.00,Rainwise IP-100,2013-07-23 01:28:00,
2013-07-22 21:33:00,81.0,74.0,30.11,SE,135,5.0,0.0,80,0.00,,,0.00,Rainwise IP-100,2013-07-23 01:33:00,
2013-07-22 21:38:00,81.0,74.0,30.11,SE,135,3.0,8.0,81,0.00,,,0.00,Rainwise IP-100,2013-07-23 01:38:00,
2013-07-22 21:43:00,81.0,74.0,30.11,ESE,112,7.0,0.0,79,0.00,,,0.00,Rainwise IP-100,2013-07-23 01:43:00,
2013-07-22 21:48:00,81.0,74.0,30.10,SSE,157,5.0,7.0,79,0.00,,,0.00,Rainwise IP-100,2013-07-23 01:48:00,
2013-07-22 21:53:00,81.0,74.0,30.10,ESE,112,8.0,8.0,79,0.00,,,0.00,Rainwise IP-100,2013-07-23 01:53:00,
2013-07-22 21:58:00,81.0,74.0,30.10,SE,135,8.0,8.0,79,0.00,,,0.00,Rainwise IP-100,2013-07-23 01:58:00,
2013-07-22 22:04:00,81.0,74.0,30.10,SE,135,6.0,8.0,79,0.00,,,0.00,Rainwise IP-100,2013-07-23 02:04:00,
2013-07-22 22:09:00,81.0,74.0,30.11,SE,135,7.0,0.0,80,0.00,,,0.00,Rainwise IP-100,2013-07-23 02:09:00,
2013-07-22 22:14:00,81.0,74.0,30.10,SE,135,3.0,9.0,81,0.00,,,0.00,Rainwise IP-100,2013-07-23 02:14:00,
2013-07-22 22:19:00,81.0,74.0,30.10,SE,135,4.0,7.0,80,0.00,,,0.00,Rainwise IP-100,2013-07-23 02:19:00,
2013-07-22 22:24:00,81.0,74.0,30.10,ESE,112,8.0,0.0,81,0.00,,,0.00,Rainwise IP-100,2013-07-23 02:24:00,
2013-07-22 22:29:00,81.0,75.0,30.10,SE,135,6.0,6.0,82,0.00,,,0.00,Rainwise IP-100,2013-07-23 02:29:00,
2013-07-22 22:34:00,80.0,73.0,30.10,ESE,112,7.0,0.0,81,0.00,,,0.00,Rainwise IP-100,2013-07-23 02:34:00,
2013-07-22 22:40:00,80.0,73.0,30.10,ESE,112,7.0,7.0,81,0.00,,,0.00,Rainwise IP-100,2013-07-23 02:40:00,
2013-07-22 22:45:00,81.0,75.0,30.10,SE,135,6.0,0.0,82,0.00,,,0.00,Rainwise IP-100,2013-07-23 02:45:00,
2013-07-22 22:50:00,80.0,74.0,30.10,SE,135,6.0,8.0,83,0.00,,,0.00,Rainwise IP-100,2013-07-23 02:50:00,
2013-07-22 22:55:00,80.0,73.0,30.10,ESE,112,6.0,9.0,82,0.00,,,0.00,Rainwise IP-100,2013-07-23 02:55:00,
2013-07-22 23:00:00,80.0,73.0,30.10,South,180,6.0,7.0,82,0.00,,,0.00,Rainwise IP-100,2013-07-23 03:00:00,
2013-07-22 23:05:00,80.0,73.0,30.10,SSE,157,7.0,7.0,82,0.00,,,0.00,Rainwise IP-100,2013-07-23 03:05:00,
2013-07-22 23:10:00,80.0,73.0,30.11,ESE,112,3.0,9.0,81,0.00,,,0.00,Rainwise IP-100,2013-07-23 03:10:00,
2013-07-22 23:15:00,80.0,73.0,30.10,SSE,157,2.0,0.0,81,0.00,,,0.00,Rainwise IP-100,2013-07-23 03:15:00,
2013-07-22 23:21:00,80.0,73.0,30.10,SSE,157,4.0,9.0,81,0.00,,,0.00,Rainwise IP-100,2013-07-23 03:21:00,
2013-07-22 23:26:00,80.0,73.0,30.10,SSE,157,6.0,0.0,81,0.00,,,0.00,Rainwise IP-100,2013-07-23 03:26:00,
2013-07-22 23:31:00,80.0,73.0,30.10,SE,135,5.0,9.0,81,0.00,,,0.00,Rainwise IP-100,2013-07-23 03:31:00,
2013-07-22 23:36:00,80.0,73.0,30.10,SSE,157,3.0,9.0,81,0.00,,,0.00,Rainwise IP-100,2013-07-23 03:36:00,
2013-07-22 23:41:00,80.0,73.0,30.10,SSE,157,4.0,8.0,81,0.00,,,0.00,Rainwise IP-100,2013-07-23 03:41:00,
2013-07-22 23:46:00,80.0,73.0,30.10,SSE,157,6.0,0.0,81,0.00,,,0.00,Rainwise IP-100,2013-07-23 03:46:00,
2013-07-22 23:51:00,80.0,73.0,30.10,SSE,157,7.0,9.0,80,0.00,,,0.00,Rainwise IP-100,2013-07-23 03:51:00,
2013-07-22 23:57:00,80.0,73.0,30.10,SE,135,6.0,0.0,80,0.00,,,0.00,Rainwise IP-100,2013-07-23 03:57:00,